Waukesha, WI

4:09 AM CST on February 25, 2018 (GMT -0600)
Waukesha County

Weather History for KUES - April, 2013

Change the Weather History Date:

Thursday, April 18, 2013

  Actual Average Record
Temperature  
Mean Temperature 42 °F -  
Max Temperature 48 °F 58 °F 87 °F (2002)
Min Temperature 35 °F 39 °F 21 °F (1983)
Degree Days  
Heating Degree Days 22    
Moisture  
Dew Point 41 °F    
Average Humidity 98    
Maximum Humidity 100    
Minimum Humidity 81    
Precipitation  
Precipitation 0.63 in - - ()
Sea Level Pressure  
Sea Level Pressure 29.61 in    
Wind  
Wind Speed 10 mph (East)    
Max Wind Speed 23 mph    
Max Gust Speed 34 mph    
Visibility 6 miles    
Events Rain    
Averages and records for this station are not official NWS values.
T = Trace of Precipitation, MM = Missing Value Source: NWS Daily Summary

Daily Weather History Graph

Daily Weather History Graph

Search for Another Location

Airport or City:

Trip Planner

Search our weather history database for the weather conditions in past years. The results will help you decide how hot, cold, wet, or windy it might be!

Date:

Astronomy

Apr. 18, 2013 Rise Set
Actual Time 6:05 AM CDT 7:39 PM CDT
Civil Twilight 5:36 AM CDT 8:09 PM CDT
Nautical Twilight 5:00 AM CDT 8:45 PM CDT
Astronomical Twilight 4:21 AM CDT 9:24 PM CDT
Moon 12:15 PM CDT (4/18) 1:55 AM CDT (4/18)
Length of Visible Light 14h 33m
Length of Day
13h 33m
First Quarter, 52% of the Moon is Illuminated
Apr 18
First Quarter
Apr 25
Full
May 2
Last Quarter
May 9
New
May 17
First Quarter

Hourly Weather History & Observations

Time (CDT) Temp. Windchill Dew Point Humidity Pressure Visibility Wind Dir Wind Speed Gust Speed Precip Events Conditions
12:15 AM 39.2 °F 31.2 °F 39.2 °F 100% 29.86 in 5.0 mi ENE 13.8 mph 19.6 mph 0.03 in Rain Rain
12:35 AM 39.2 °F 31.6 °F 39.2 °F 100% 29.86 in 4.0 mi ENE 12.7 mph - 0.10 in Rain Rain
12:55 AM 39.2 °F 31.6 °F 39.2 °F 100% 29.85 in 5.0 mi ENE 12.7 mph - 0.14 in Rain Rain
1:15 AM 39.2 °F 32.0 °F 39.2 °F 100% 29.83 in 5.0 mi ENE 11.5 mph 17.3 mph 0.04 in Rain Rain
1:35 AM 39.2 °F 32.5 °F 39.2 °F 100% 29.83 in 5.0 mi ENE 10.4 mph - 0.08 in Rain Rain
1:55 AM 39.2 °F 33.0 °F 39.2 °F 100% 29.81 in 4.0 mi ENE 9.2 mph - 0.14 in Rain Rain
2:15 AM 39.2 °F 35.0 °F 39.2 °F 100% 29.81 in 3.0 mi East 5.8 mph - 0.07 in Rain Rain
2:35 AM 39.2 °F 33.6 °F 39.2 °F 100% 29.78 in 4.0 mi ENE 8.1 mph - 0.13 in Rain Rain
2:55 AM 39.2 °F 33.0 °F 39.2 °F 100% 29.75 in 7.0 mi ENE 9.2 mph - 0.15 in Rain Light Rain
3:15 AM 39.2 °F 37.0 °F 39.2 °F 100% 29.74 in 10.0 mi East 3.5 mph - N/A   Light Drizzle
3:35 AM 39.2 °F 33.6 °F 39.2 °F 100% 29.73 in 10.0 mi East 8.1 mph - N/A Rain Rain
3:55 AM 39.2 °F 34.2 °F 39.2 °F 100% 29.72 in 5.0 mi East 6.9 mph - 0.03 in Rain Rain
4:15 AM 41.0 °F 36.4 °F 41.0 °F 100% 29.71 in 4.0 mi East 6.9 mph - 0.06 in Rain Heavy Rain
4:35 AM 41.0 °F 36.4 °F 41.0 °F 100% 29.70 in 5.0 mi ESE 6.9 mph - 0.12 in Rain Rain
4:55 AM 41.0 °F 37.1 °F 41.0 °F 100% 29.68 in 5.0 mi East 5.8 mph - 0.16 in Rain Rain
5:15 AM 41.0 °F 35.8 °F 41.0 °F 100% 29.67 in 7.0 mi ESE 8.1 mph - 0.01 in Rain Light Rain
5:35 AM 41.0 °F 34.7 °F 41.0 °F 100% 29.64 in 7.0 mi ESE 10.4 mph - 0.01 in Rain Rain
5:45 AM 41.0 °F 34.3 °F 41.0 °F 100% 29.61 in 5.0 mi East 11.5 mph - N/A Rain Light Rain
6:45 AM 42.8 °F - 42.8 °F 100% 29.61 in 2.0 mi Calm Calm - N/A Rain Rain
7:45 AM 42.8 °F 40.1 °F 42.8 °F 100% 29.59 in 1.5 mi ESE 4.6 mph - N/A Rain Rain
8:45 AM 44.6 °F 40.7 °F 44.6 °F 100% 29.57 in 1.5 mi NNW 6.9 mph - N/A Rain Rain
9:45 AM 44.6 °F - 44.6 °F 100% 29.58 in 3.0 mi Calm Calm - N/A   Drizzle
10:45 AM 44.6 °F - 44.6 °F 100% 29.59 in 7.0 mi Calm Calm - N/A   Overcast
11:45 AM 46.4 °F - 46.4 °F 100% 29.58 in 10.0 mi Calm Calm - N/A   Overcast
12:45 PM 48.2 °F - 48.2 °F 100% 29.55 in 10.0 mi ESE 4.6 mph - N/A   Overcast
1:45 PM 48.2 °F - 48.2 °F 100% 29.48 in 2.0 mi East 12.7 mph - N/A   Overcast
2:45 PM 48.2 °F - 48.2 °F 100% 29.51 in 4.0 mi Calm Calm - N/A   Overcast
3:45 PM 46.4 °F 42.9 °F 46.4 °F 100% 29.50 in 0.8 mi ENE 6.9 mph - N/A   Overcast
4:45 PM 44.6 °F 40.7 °F 44.6 °F 100% 29.45 in 0.8 mi East 6.9 mph - N/A   Overcast
5:45 PM 44.6 °F 40.2 °F 44.6 °F 100% 29.44 in 1.0 mi East 8.1 mph - N/A   Overcast
6:45 PM 46.4 °F 41.9 °F 46.4 °F 100% 29.40 in 1.0 mi ESE 9.2 mph - N/A   Overcast
7:45 PM 46.4 °F 42.9 °F 46.4 °F 100% 29.37 in 1.0 mi ESE 6.9 mph - N/A   Drizzle
8:45 PM 44.6 °F 35.9 °F 44.6 °F 100% 29.45 in 10.0 mi SW 23.0 mph 34.5 mph N/A   Overcast
9:55 PM 41.0 °F 31.4 °F 37.4 °F 87% 29.43 in 10.0 mi SW 21.9 mph 32.2 mph N/A   Overcast
10:35 PM 41.0 °F 31.9 °F 37.4 °F 87% 29.43 in 10.0 mi SW 19.6 mph 33.4 mph N/A   Overcast
10:55 PM 37.4 °F 26.9 °F 35.6 °F 93% 29.44 in 7.0 mi SW 20.7 mph 28.8 mph N/A   Overcast
11:15 PM 37.4 °F 26.9 °F 33.8 °F 87% 29.44 in 10.0 mi SW 20.7 mph 33.4 mph N/A   Mostly Cloudy
11:35 PM 37.4 °F 28.5 °F 32.0 °F 81% 29.42 in 10.0 mi SW 15.0 mph 25.3 mph N/A   Overcast
11:55 PM 35.6 °F 24.0 °F 32.0 °F 87% 29.41 in 10.0 mi SW 23.0 mph 33.4 mph N/A   Overcast